www.pogodaiklimat.ru

Погода и климат >> Архив погоды >> Новая Зеландия >> Хикс-Бей


ПОГОДА в Хикс-Бей

  • Прогноз погоды в Хикс-Бей
  • Монитор погоды в Хикс-Бей

АРХИВ ПОГОДЫ в Хикс-Бей

Время (UTC), дата Ветер
(напр.,м/с)
 
Видим.   Явления Облачность Т
(С)
Тd
(С)
f
(%)
Тe
(С)
Тes
(С)
Комфортность P
(гПа)
Po
(гПа)
Тmin
(С)
Tmax
(С)
R
(мм)
R24
(мм)
S
(см)
09 11.07 З 10 н/о н/о +13.8 +10.2 79 +11 +11 1018.2 1012.8
12 11.07 З 6 н/о н/о +13.4 +9.5 77 +11 +11 1017.9 1012.5 +17.0
15 11.07 З 7 н/о н/о +13.0 +9.0 77 +10 +10 1017.9 1012.5
18 11.07 ЮЗ 3 н/о н/о +11.1 +8.2 82 +9 +9 1017.9 1012.4
21 11.07 ЮЗ 2 н/о н/о +12.6 +10.4 86 +12 +12 1018.5 1013.1
00 12.07 З 5 н/о н/о +14.9 +12.3 84 +14 +14 1016.2 1010.8 +10.7
03 12.07 СЗ 10 н/о н/о +15.4 +14.3 93 +13 +13 1012.9 1007.6
06 12.07 СЗ 10 н/о н/о +13.7 +12.9 95 +11 +11 1012.2 1006.8 12
09 12.07 З 10 н/о н/о +14.7 +13.4 92 +12 +12 1012.1 1006.7
12 12.07 З 8 н/о н/о +13.8 +10.5 80 +11 +11 1012.5 1007.1 +17.6 5
15 12.07 З 9 н/о н/о +13.4 +9.6 78 +11 +11 1013.3 1007.9
18 12.07 З 9 н/о н/о +12.3 +8.4 77 +9 +9 1013.9 1008.5
21 12.07 З 12 н/о н/о +13.9 +8.2 68 +11 +11 1014.3 1008.9
00 13.07 З 10 н/о н/о +14.8 +9.6 71 +12 +12 1014.9 1009.5 +11.9 17
03 13.07 СЗ 5 н/о н/о +16.6 +9.6 63 +16 +16 1013.2 1007.9
06 13.07 Ю 1 н/о н/о +13.7 +10.7 82 +14 +14 1014.6 1009.2
09 13.07 З 6 н/о н/о +14.1 +11.2 83 +12 +12 1014.5 1009.1
12 13.07 З 8 н/о н/о +14.3 +10.3 77 +12 +12 1012.9 1007.5 +16.9
15 13.07 З 12 н/о н/о +15.2 +12.7 85 +12 +12 1010.4 1005.1
18 13.07 З 11 н/о н/о +15.1 +13.4 90 +13 +13 1008.6 1003.3
21 13.07 СЗ 10 н/о н/о +16.4 +14.1 86 +14 +14 1007.8 1002.5
00 14.07 СЗ 16 н/о н/о +17.5 +14.7 84 +16 +16 1003.3 998.0 +13.1
03 14.07 СЗ 14 н/о н/о +15.8 +14.0 89 +13 +13 1000.2 994.9
06 14.07 З 6 н/о н/о +12.0 +9.5 85 +9 +9 999.8 994.5 2
09 14.07 З 14 н/о н/о +12.1 +9.8 86 +8 +8 1000.6 995.3
12 14.07 З 8 н/о н/о +12.8 +10.0 83 +10 +10 1001.1 995.8 +17.8 5
15 14.07 З 12 н/о н/о +13.4 +8.0 70 +10 +10 1000.9 995.6
18 14.07 З 9 н/о н/о +11.9 +7.6 75 +8 +8 1002.1 996.7 0.2
21 14.07 З 3 н/о н/о +13.5 +8.7 73 +12 +12 1005.2 999.9
00 15.07 З 7 н/о н/о +14.9 +9.2 69 +13 +13 1006.1 1000.8 +11.3 7
03 15.07 З 7 н/о н/о +14.7 +7.1 60 +13 +13 1006.5 1001.2
06 15.07 З 3 н/о н/о +10.8 +6.6 75 +9 +9 1008.1 1002.7
09 15.07 СЗ 7 н/о н/о +13.0 +8.6 75 +10 +10 1007.9 1002.5
12 15.07 СЗ 10 н/о н/о +13.5 +7.6 67 +11 +11 1006.4 1001.1 +16.0
15 15.07 СЗ 12 н/о н/о +13.6 +11.3 86 +10 +10 1004.3 999.0
18 15.07 СЗ 13 н/о н/о +14.6 +11.0 79 +12 +12 1001.6 996.3 0.2
21 15.07 СЗ 9 н/о н/о +13.7 +13.3 97 +11 +11 999.7 994.4
00 16.07 С 14 н/о н/о +15.2 +13.6 90 +12 +12 996.5 991.2 +8.9 5
03 16.07 СЗ 5 н/о н/о +13.9 +13.0 94 +12 +12 993.6 988.3
06 16.07 З 6 н/о н/о +12.7 +10.5 86 +10 +10 993.2 987.9 4
09 16.07 З 4 н/о н/о +11.4 +9.3 87 +9 +9 993.5 988.2
12 16.07 З 9 н/о н/о +11.7 +7.8 77 +8 +8 993.8 988.5 +15.7
15 16.07 З 10 н/о н/о +11.6 +8.6 82 +8 +8 993.2 987.9
18 16.07 З 14 н/о н/о +13.2 +9.2 77 +9 +9 993.2 987.9
21 16.07 З 12 н/о н/о +13.1 +8.2 72 +10 +10 994.5 989.2
00 17.07 0 н/о
03 17.07 З 12 н/о н/о +14.7 +7.9 64 +12 +12 995.2 989.9
06 17.07 З 11 н/о н/о +12.3 +7.0 70 +9 +9 997.3 992.0
09 17.07 З 13 н/о н/о +12.2 +8.4 78 +8 +8 999.5 994.2
12 17.07 З 8 н/о н/о +10.9 +5.9 71 +7 +7 1001.1 995.7 0.4
15 17.07 З 5 н/о н/о +9.7 +4.8 71 +7 +7 1003.4 998.0
18 17.07 З 2 н/о н/о +9.6 +4.7 71 +8 +8 1005.6 1000.2
21 17.07 З 5 н/о н/о +12.1 +6.2 67 +10 +10 1008.6 1003.2
00 18.07 З 8 н/о н/о +14.9 +6.4 57 +13 +13 1008.7 1003.4
03 18.07 З 7 н/о н/о +14.4 +6.9 61 +12 +12 1008.0 1002.7
06 18.07 З 4 н/о н/о +10.3 +6.1 75 +8 +8 1010.0 1004.6

 

Местоположение метеостанции Хикс-Бей (Новая Зеландия): широта -37.55 долгота 178.30 высота над уровнем моря 46 м.

В архиве по умолчанию представлена погода в Хикс-Бей за последнюю неделю. Архивные данные за месяц целиком и за предыдущие месяцы, начиная с января 2011 года, Вы можете получить, выбрав интересующий диапазон дат из раскрывающегося списка и нажав кнопку "Ввод!".


*Определитесь, кто Вы:
робот инопланетянин человек

Внимание! Время в таблицах - всемирное. Для получения местного времени необходимо прибавить поправку, которая равна 12 ч.

Смотрите также архив погоды в соседних городах и на ближайших метеорологических станциях:

Погода в Гисборне (Новая Зеландия) (126 км)
Погода в Тауранге (Новая Зеландия) (185 км)
Погода на Таупо (Новая Зеландия) (236 км)
Погода в Нейпире (Новая Зеландия) (246 км)
Погода на Уэйауру (Новая Зеландия) (311 км)
Погода в Окленде (Новая Зеландия) (316 км)
Погода в Тахароа (Новая Зеландия) (323 км)
Погода на Мокохинау (Новая Зеландия) (339 км)
Погода в Пальмерстон-Норте (Новая Зеландия) (386 км)
Погода в Нью-Плимуте (Новая Зеландия) (395 км)

Пояснения к столбцам:

Ветер - указаны скорость ветра в м/с - средняя за 10 мин, порывы в срок и между сроками (в фигурных скобках) и направление, откуда дует ветер: С - северный, СВ - северо-восточный, В - восточный, ЮВ - юго-восточный, Ю - южный, ЮЗ - юго-западный, З - западный, СЗ - северо-западный.
Видимость - горизонтальная дальность видимости в метрах или километрах. При видимости от 1 до 10 км при отсутствии осадков обычно наблюдается дымка, при ухудшении видимости до 1 км и менее - туман. В сухую погоду видимость может ухудшаться дымом, пылью или мглою.
Явления - указаны атмосферные явления, наблюдавшиеся в срок или в последний час перед сроком; фигурными скобками обозначены явления, наблюдавшиеся между сроками (за 1-3 часа до срока); квадратными скобками обозначены град или гололедные отложения с указанием их диаметра в мм.
Облачность - указаны через наклонную черту общая и нижняя облачность в баллах и высота нижней границы облаков в метрах; квадратными скобками обозначены формы облаков: Ci - перистые, Cs - перисто-слоистые, Cc - перисто-кучевые, Ac - высококучевые, As - высокослоистые, Sc - слоисто-кучевые, Ns - слоисто-дождевые, Cu - кучевые, Cb - кучево-дождевые. Подробнее классификацию облаков см. в Атласе облаков (PDF).
T - Температура воздуха - температура, измеренная на высоте 2 м над землей.
Td - Температура точки росы - температура, при понижении до которой содержащийся в воздухе водяной пар достигнет насыщения.
f - Относительная влажность воздуха - влажноcть воздуха, измеренная на высоте 2 м над землей.
Te - Эффективная температура - температура, которую ощущает одетый по сезону человек в тени. Характеристика душности погоды. При расчете учитывается влияние влажности воздуха и скорости ветра на теплоощущения человека.
Tes - Эффективная температура на солнце - температура, которую ощущает человек, с поправкой на солнечный нагрев. Характеристика знойности погоды. Зависит от высоты солнца над горизонтом, облачности и скорости ветра. Ночью, в пасмурную погоду, а также при ветре 12 м/с и более поправка равна нулю.
P - Атмосферное давление - приведенное к уровню моря атмосферное давление.
Po - Атмосферное давление - измеренное на уровне метеостанции атмосферное давление.
Tmin - Минимальная температура - минимум температуры воздуха на высоте 2 м над землей.
Tmax - Максимальная температура - максимум температуры воздуха на высоте 2 м над землей.
R - Количество осадков - Количество выпавших осадков за период времени, мм. При наведении курсора мыши на число - период времени, за который выпало указанное количество осадков.
R24 - Количество осадков - Количество выпавших осадков за 24 часа, мм.
S - Снежный покров - Высота снежного покрова, см. При наведении курсора мыши на число - состояние снежного покрова и степень покрытия местности в баллах.